Change the Weather History Date:

Saturday, June 22, 2013

  Actual Average Record
Temperature  
Mean Temperature 60 °F -  
Max Temperature 64 °F 68 °F 77 °F (2003)
Min Temperature 57 °F 53 °F 44 °F (1999)
Degree Days  
Heating Degree Days 4    
Growing Degree Days 10 (Base 50)    
Moisture  
Dew Point 55 °F    
Average Humidity 81    
Maximum Humidity 94    
Minimum Humidity 67    
Precipitation  
Precipitation 0.12 in - - ()
Sea Level Pressure  
Sea Level Pressure 29.83 in    
Wind  
Wind Speed 16 mph ()    
Max Wind Speed 25 mph    
Max Gust Speed 36 mph    
Visibility 6.8 miles    
Events Rain    
Averages and records for this station are not official NWS values.
T = Trace of Precipitation, MM = Missing Value Source: Averaged Metar Reports

Daily Weather History Graph

Daily Weather History Graph

Search for Another Location

Airport or City:

Trip Planner

Search our weather history database for the weather conditions in past years. The results will help you decide how hot, cold, wet, or windy it might be!

Date:

Astronomy

Jun. 22, 2013 Rise Set
Actual Time 5:22 AM CEST 10:05 PM CEST
Civil Twilight 4:33 AM CEST 10:54 PM CEST
Nautical Twilight 3:15 AM CEST 12:12 AM CEST
Astronomical Twilight Sun does not rise Sun does not rise
Moon 8:55 PM CEST (6/22) 4:29 AM CEST (6/22)
Length of Visible Light 18h 21m
Length of Day
16h 43m
Waxing Gibbous, 98% of the Moon is Illuminated
Jun 22
Waxing Gibbous
Jun 23
Full
Jun 30
Last Quarter
Jul 8
New
Jul 16
First Quarter

Hourly Weather History & Observations

Time (CEST) Temp. Dew Point Humidity Pressure Visibility Wind Dir Wind Speed Gust Speed Precip Events Conditions
12:25 AM 60.8 °F 55.4 °F 82% 29.92 in 6.2 mi SW 18.4 mph - N/A   Overcast
12:55 AM 60.8 °F 55.4 °F 82% 29.92 in 6.2 mi SW 17.3 mph - N/A   Overcast
1:25 AM 60.8 °F 55.4 °F 82% 29.92 in 6.2 mi SW 16.1 mph - N/A   Overcast
1:55 AM 60.8 °F 55.4 °F 82% 29.92 in 6.2 mi SW 16.1 mph 27.6 mph N/A   Overcast
2:00 AM 60 °F 55 °F 78% 29.92 in 12 mi SW 13.4 mph - -   Partly Cloudy
2:25 AM 60.8 °F 55.4 °F 82% 29.89 in 6.2 mi SW 15.0 mph - N/A   Overcast
2:55 AM 60.8 °F 55.4 °F 82% 29.89 in 6.2 mi SSW 16.1 mph - N/A   Overcast
3:25 AM 60.8 °F 55.4 °F 82% 29.89 in 6.2 mi SSW 17.3 mph - N/A   Overcast
3:55 AM 59.0 °F 55.4 °F 88% 29.89 in 6.2 mi SSW 17.3 mph - N/A   Overcast
4:25 AM 59.0 °F 53.6 °F 82% 29.89 in 6.2 mi SSW 15.0 mph - N/A   Overcast
4:55 AM 59.0 °F 53.6 °F 82% 29.89 in 6.2 mi SSW 17.3 mph - N/A   Overcast
5:00 AM 59 °F 54 °F 78% 29.90 in 13 mi SSW 15.7 mph - -   Overcast
5:25 AM 59.0 °F 53.6 °F 82% 29.89 in 6.2 mi SW 17.3 mph - N/A   Partly Cloudy
5:55 AM 59.0 °F 53.6 °F 82% 29.89 in 6.2 mi SW 17.3 mph - N/A   Unknown
6:25 AM 57.2 °F 53.6 °F 88% 29.89 in 6.2 mi SSW 16.1 mph - N/A   Partly Cloudy
6:55 AM 57.2 °F 53.6 °F 88% 29.89 in 6.2 mi SSW 17.3 mph - N/A   Mostly Cloudy
7:25 AM 59.0 °F 53.6 °F 82% 29.86 in 6.2 mi SSW 17.3 mph - N/A   Unknown
7:55 AM 59.0 °F 53.6 °F 82% 29.86 in 6.2 mi SSW 13.8 mph - N/A   Unknown
8:00 AM 60 °F 54 °F 75% 29.89 in 12 mi SSW 13.4 mph - -   Partly Cloudy
8:25 AM 60.8 °F 53.6 °F 77% 29.86 in 6.2 mi SSW 16.1 mph - N/A   Partly Cloudy
8:55 AM 60.8 °F 55.4 °F 82% 29.86 in 6.2 mi SSW 17.3 mph 29.9 mph N/A   Scattered Clouds
9:25 AM 62.6 °F 55.4 °F 77% 29.86 in 6.2 mi South 16.1 mph - N/A Rain Light Rain
9:55 AM 62.6 °F 55.4 °F 77% 29.86 in 6.2 mi SSW 16.1 mph - N/A   Overcast
10:25 AM 62.6 °F 55.4 °F 77% 29.83 in 6.2 mi SSW 19.6 mph - N/A   Mostly Cloudy
10:55 AM 64.4 °F 55.4 °F 73% 29.83 in 6.2 mi SSW 17.3 mph - N/A   Mostly Cloudy
11:00 AM 64 °F 56 °F 67% 29.84 in 16 mi SSW 20.1 mph - -   Partly Cloudy
11:25 AM 64.4 °F 57.2 °F 77% 29.83 in 6.2 mi South 16.1 mph - N/A   Overcast
11:55 AM 62.6 °F 57.2 °F 82% 29.83 in 6.2 mi SSW 17.3 mph 29.9 mph N/A Rain Light Rain
12:25 PM 64.4 °F 57.2 °F 77% 29.80 in 6.2 mi SSW 18.4 mph - N/A   Drizzle
12:55 PM 64.4 °F 57.2 °F 77% 29.80 in 6.2 mi SSW 18.4 mph - N/A Rain Light Rain
1:25 PM 62.6 °F 55.4 °F 77% 29.80 in 6.2 mi SSW 24.2 mph 35.7 mph N/A Rain Light Rain
1:55 PM 60.8 °F 57.2 °F 88% 29.80 in 6.2 mi SSW 17.3 mph - N/A Rain Light Drizzle
2:00 PM 60 °F 57 °F 87% 29.83 in 2 mi SSW 24.6 mph - - Rain Light Rain Showers
2:25 PM 59.0 °F 57.2 °F 94% 29.80 in - SSW 18.4 mph - N/A Rain Rain Showers
2:55 PM 60.8 °F 57.2 °F 88% 29.80 in 6.2 mi SSW 21.9 mph - N/A Rain Light Rain
3:25 PM 62.6 °F 57.2 °F 82% 29.80 in 6.2 mi SSW 21.9 mph 34.5 mph N/A   Mostly Cloudy
3:55 PM 60.8 °F 55.4 °F 82% 29.80 in 6.2 mi SSW 21.9 mph 35.7 mph N/A   Light Drizzle
4:25 PM 60.8 °F 55.4 °F 82% 29.80 in 6.2 mi SSW 18.4 mph - N/A   Overcast
4:55 PM 60.8 °F 55.4 °F 82% 29.80 in 6.2 mi South 18.4 mph - N/A   Overcast
5:00 PM 62 °F 56 °F 75% 29.80 in 22 mi South 20.1 mph - -   Partly Cloudy
5:25 PM 60.8 °F 55.4 °F 82% 29.77 in 6.2 mi South 19.6 mph 35.7 mph N/A   Overcast
5:55 PM 62.6 °F 55.4 °F 77% 29.77 in 6.2 mi SSW 20.7 mph - N/A   Overcast
6:25 PM 62.6 °F 57.2 °F 82% 29.77 in 6.2 mi South 17.3 mph 29.9 mph N/A   Overcast
6:55 PM 62.6 °F 55.4 °F 77% 29.74 in 6.2 mi South 21.9 mph 35.7 mph N/A   Overcast
7:25 PM 60.8 °F 57.2 °F 88% 29.74 in 6.2 mi South 20.7 mph - N/A   Overcast
7:55 PM 59.0 °F 57.2 °F 94% 29.74 in 6.2 mi SSW 20.7 mph - N/A   Heavy Drizzle
8:00 PM 58 °F 54 °F 82% 29.76 in 3 mi SW 24.6 mph - - Rain Rain Showers
8:25 PM 59.0 °F 55.4 °F 88% 29.74 in 6.2 mi SW 16.1 mph - N/A   Overcast
8:55 PM 59.0 °F 53.6 °F 82% 29.74 in 6.2 mi WSW 18.4 mph - N/A   Mostly Cloudy
9:25 PM 59.0 °F 53.6 °F 82% 29.74 in 6.2 mi SW 15.0 mph - N/A   Partly Cloudy
9:55 PM 59.0 °F 51.8 °F 77% 29.77 in 6.2 mi SW 16.1 mph 27.6 mph N/A   Unknown
10:25 PM 57.2 °F 50.0 °F 77% 29.74 in 6.2 mi SW 19.6 mph - N/A   Unknown
10:55 PM 59.0 °F 51.8 °F 77% 29.77 in 6.2 mi SW 16.1 mph - N/A   Overcast
11:00 PM 58 °F 50 °F 68% 29.78 in 18 mi SW 17.9 mph - -   Overcast
11:25 PM 57.2 °F 51.8 °F 82% 29.77 in 6.2 mi SW 16.1 mph - N/A   Overcast
11:55 PM 57.2 °F 50.0 °F 77% 29.77 in 6.2 mi SW 17.3 mph 29.9 mph N/A   Partly Cloudy